Regional Weather Roundup
Issued by NWS

Home | Current Version | Previous Version | Text Only | Print | Product List | Glossary Off
Versions: 1 2 3 4 5 6 7 8 9 10 11 12 13 14 15 16 17 18 19 20 21 22 23 24 25 26 27 28 29 30 31 32 33 34 35 36 37 38 39 40 41 42 43 44 45 46 47 48 49 50

000
ASUS45 KPSR 230310
RWRAZ

ARIZONA REGIONAL HOURLY WEATHER ROUNDUP
NATIONAL WEATHER SERVICE PHOENIX AZ
800 PM MST FRI AUG 22 2014

NOTE: FAIR INDICATES FEW OR NO CLOUDS BELOW 12,000 FEET WITH NO
SIGNIFICANT WEATHER AND/OR OBSTRUCTIONS TO VISIBILITY.

AZZ001>003-036-230400-
NORTHWEST ARIZONA

CITY           SKY/WX    TMP DP  RH WIND       PRES   REMARKS
BULLHEAD CITY  CLEAR     91  54  27 S14       29.80S
KINGMAN        CLEAR     76  52  43 SW9       30.00R
$$

AZZ004>008-015-016-018-230400-
NORTH CENTRAL ARIZONA

CITY           SKY/WX    TMP DP  RH WIND       PRES   REMARKS
GRAND CANYON     N/A    N/A N/A N/A MISG        N/A
WILLIAMS       CLEAR     59  48  67 S7        30.27R
PRESCOTT       CLEAR     67  51  56 SW6       30.12R
FLAGSTAFF      CLEAR     57  48  72 W6        30.24R
PAYSON         CLEAR     68  52  56 CALM      30.15R
PAGE           MOCLDY    80  49  33 S3        29.96R
$$

AZZ009>014-017-230400-
NORTHEAST ARIZONA

CITY           SKY/WX    TMP DP  RH WIND       PRES   REMARKS
WINSLOW        CLEAR     71  52  50 SW13      30.09R
SAINT JOHNS    MOCLDY    66  49  54 S5        30.15R
WINDOW ROCK    PTCLDY    64  45  49 S6        30.20R
SHOW LOW       CLEAR     59  48  67 S7        30.23R
$$

AZZ023-230400-
GREATER PHOENIX AREA

CITY           SKY/WX    TMP DP  RH WIND       PRES   REMARKS
PHOENIX        CLEAR     89  57  33 W6        29.86R
BUCKEYE          N/A     82  64  54 SE6       29.87S
GLENDALE       PTCLDY    88  64  45 S5        29.88R
LUKE AFB       NOT AVBL
DEER VALLEY    CLEAR     86  57  37 SW6       29.89R
SCOTTSDALE     CLEAR     86  56  35 SW5       29.91R
MESA-GATEWAY   PTCLDY    86  54  32 NW5       29.91R
CHANDLER       PTCLDY    88  55  33 W8        29.88S
$$

AZZ027-028-230400-
SOUTHWEST MARICOPA COUNTY AND PINAL COUNTY

CITY           SKY/WX    TMP DP  RH WIND       PRES   REMARKS
CASA GRANDE    CLEAR     88  55  33 NW8       29.90S
GILA BEND      CLEAR     86  59  39 W2        29.85R
$$

AZZ503-504-507>509-230400-
SOUTHEAST ARIZONA

CITY           SKY/WX    TMP DP  RH WIND       PRES   REMARKS
TUCSON         PTCLDY    85  58  39 W6        29.99R
DAVIS-MONTHAN  PTCLDY    83  61  47 SW5       29.98R
RYAN FIELD       N/A     84  59  42 W8        29.97R
NOGALES        CLEAR     74  60  61 CALM      30.08R
SIERRA VISTA   PTCLDY    70  64  83 S3        30.13R
DOUGLAS        PTCLDY    69  63  81 CALM      30.10R
SAFFORD        CLEAR     81  53  37 NW9       29.97R
$$

AZZ020-021-025-026-031-230400-
SOUTHWEST ARIZONA

CITY           SKY/WX    TMP DP  RH WIND       PRES   REMARKS
YUMA           PTCLDY    92  57  30 SW7       29.81R
$$

CAZ031-033-041-043-047-048-061-230400-
SOUTHERN CALIFORNIA

CITY           SKY/WX    TMP DP  RH WIND       PRES   REMARKS
DOWNTOWN L.A.  MOCLDY    70  63  78 VRB3      29.93R
L.A. AIRPORT   CLOUDY    69  63  81 W10       29.93S
SAN DIEGO      PTCLDY    72  64  76 NW7       29.95R
BURBANK        CLEAR     72  61  68 S8        29.92R
ONTARIO        CLEAR     77  56  48 W12       29.92R
RIVERSIDE      CLEAR     76  58  53 W8        29.92R
PALM SPRINGS   CLEAR     90  58  33 SE10      29.82R
EL CENTRO NAS  CLEAR     90  51  26 W16       29.79R
IMPERIAL       CLEAR     85  55  35 W13       29.78R
BLYTHE         CLEAR     88  65  46 CALM      29.80R
NEEDLES        CLEAR     92  50  23 S10       29.82R
$$

NVZ020-UTZ003-230400-
SOUTHERN NEVADA-UTAH

CITY           SKY/WX    TMP DP  RH WIND       PRES   REMARKS
LAS VEGAS      CLEAR     91  44  19 S16G24    29.78R
SALT LAKE CITY CLOUDY    59  55  87 SE8       29.99F
$$

NMZ009-TXZ055-230400-
NEW MEXICO-WEST TEXAS

CITY           SKY/WX    TMP DP  RH WIND       PRES   REMARKS
ALBUQUERQUE    MOCLDY    64  53  67 CALM      30.16F
EL PASO        MOCLDY    74  62  66 S6        30.07R
$$


........................KEY........................
SKY/WX - SKY CONDITION/WEATHER
TMP    - TEMPERATURE IN FAHRENHEIT
DP     - DEW POINT IN FAHRENHEIT
RH     - RELATIVE HUMIDITY IN PERCENT
WIND   - DIRECTION AND SPEED IN MILES PER HOUR (MPH)
VRB    - VARIABLE WIND DIRECTION
PRES   - MEAN SEA LEVEL PRESSURE IN INCHES OF MERCURY
         F - FALLING PRESSURE   R - RISING PRESSURE
         S - STEADY PRESSURE
VSB    - VISIBILITY IN MILES
HX     - HEAT INDEX IN FAHRENHEIT
WCI    - WIND CHILL INDEX IN FAHRENHEIT
TC     - TEMPERATURE IN CELSIUS WHICH IS ALSO KNOWN AS
         TEMPERATURE IN CENTIGRADE
AFB    - AIR FORCE BASE
         LUKE AFB IS LUKE AIR FORCE BASE
         DAVIS-MONTHAN IS DAVIS-MONTHAN AIR FORCE BASE
NAS    - NAVAL AIR STATION
         EL CENTRO NAS IS EL CENTRO NAVAL AIR STATION
N/A    - NOT AVAILABLE


USA.gov is the U.S. government's official web portal to all federal, state and local government web resources and services.